Temperature
14 15 15 14 14 13 12 11 11 12 12 12 12 12 13 13 14 14 13 13 13 13 13 12 12 12 12 12 12 12 12 13 13 13 13 13 13 13 13 13 14 14 14 14
15 15 15 14 14 14 13 13 12 12 12 13 14 14 14 14 14 14 14 14 14 14 13 13 12 12 12 12 12 12 12 12 12 12 12 12 12 12 13 13 13 13 13 13
13 15 15 14 14 14 14 14 13 13 13 14 13 14 14 14 14 14 14 14 14 14 14 13 13 12 12 12 12 12 12 12 12 12 12 12 12 12 12 12 12 12 13 13
13 14 14 14 15 15 15 14 14 14 14 14 14 15 15 15 14 14 14 14 14 14 14 13 13 13 12 12 12 12 12 12 12 12 12 12 12 12 11 11 12 12 12 12
12 14 14 14 15 15 14 14 15 14 15 15 15 14 14 15 15 15 14 14 14 14 14 14 13 13 13 12 12 12 12 12 12 12 12 11 11 11 11 11 11 11 11 11
13 15 15 15 15 16 15 14 15 15 15 15 14 11 13 15 15 15 15 15 15 14 14 14 13 13 13 12 12 12 12 11 11 11 11 11 11 11 11 11 11 11 11 11
14 15 14 15 16 16 13 14 16 16 15 15 15 13 15 15 15 15 15 15 15 15 14 14 14 13 13 13 12 12 12 12 11 11 11 11 11 11 11 11 11 10 11 11
13 14 15 15 15 14 14 16 16 16 16 16 15 15 15 15 15 15 15 15 15 15 15 14 14 14 13 13 13 12 12 12 11 11 11 11 11 11 11 11 11 10 10 10
13 14 15 17 17 17 17 16 16 16 16 15 15 15 15 15 15 15 15 15 15 15 15 15 14 14 13 13 13 13 12 12 11 11 11 11 11 11 11 11 11 10 10 10
13 14 15 17 17 17 17 17 16 16 16 15 15 15 15 15 15 15 15 15 15 15 15 15 14 14 14 13 13 13 12 12 11 11 11 11 11 11 11 11 10 10 10 10
14 14 15 16 17 17 17 16 16 16 16 15 15 15 15 15 15 15 15 15 15 15 15 15 14 14 14 14 13 13 12 12 11 11 11 11 11 11 10 10 10 10 9 9
13 15 15 16 17 17 16 16 16 16 15 15 15 15 15 15 15 15 15 15 15 15 15 15 15 14 14 14 13 13 12 12 11 11 11 11 11 10 10 10 10 9 9 9
20 19 18 18 17 17 17 16 16 16 16 15 15 15 15 15 15 15 15 15 15 15 15 15 15 14 14 13 13 13 12 12 11 11 11 11 11 10 10 10 9 9 9 9
20 19 18 18 17 16 16 16 16 16 15 15 15 15 15 15 15 15 15 15 15 15 15 15 15 14 14 14 13 13 12 12 12 11 11 11 11 11 10 10 10 9 9 9
19 19 19 18 17 16 16 16 16 15 15 15 15 15 15 15 15 15 15 15 15 15 15 15 15 15 14 14 13 13 13 12 12 11 11 11 11 11 11 10 10 9 9 9
18 18 18 18 17 16 16 16 15 15 15 15 15 15 15 15 15 15 15 15 15 15 15 15 15 15 14 14 13 13 13 12 12 12 12 11 11 11 11 10 10 10 9 9
18 17 17 17 16 16 16 16 16 16 15 15 15 15 15 15 15 15 15 15 15 15 15 15 15 15 14 14 14 13 13 13 12 12 12 11 11 11 11 10 10 10 9 9
19 19 18 17 17 16 16 16 16 15 15 15 15 15 15 15 15 15 15 14 14 14 14 14 14 14 14 14 14 14 13 13 13 12 12 12 11 11 11 11 10 10 10 9
19 18 18 17 17 16 16 16 16 15 15 15 15 15 15 15 15 14 14 14 14 14 14 14 14 14 14 14 14 14 13 13 13 13 12 12 12 11 11 11 11 10 10 10
18 18 18 17 17 16 16 16 15 15 15 15 15 15 15 15 14 14 14 14 14 14 14 14 14 14 14 14 14 14 14 13 13 13 13 12 12 12 12 11 11 11 10 10
18 18 18 17 17 16 16 16 16 15 15 15 15 15 15 14 14 14 14 14 14 14 13 13 14 14 14 14 14 14 14 14 13 13 13 13 12 12 12 12 11 11 11 11
17 17 17 17 17 16 16 16 16 16 15 15 15 15 14 14 14 14 14 14 14 14 13 13 13 14 14 14 14 14 14 14 14 13 13 13 13 12 12 12 12 12 11 11
16 17 17 17 17 16 16 16 16 16 15 15 15 15 14 14 14 14 14 14 14 14 13 13 13 13 14 14 14 14 14 14 14 14 13 13 13 13 13 12 12 12 12 11
15 16 16 16 16 16 16 16 16 16 15 15 15 15 14 14 14 14 14 13 13 13 13 13 13 13 14 14 14 14 14 14 14 14 13 13 13 13 13 13 12 12 12 12
14 14 15 15 15 16 16 16 16 15 15 15 15 14 14 14 14 14 13 13 13 13 13 13 13 13 13 13 13 13 13 13 13 13 13 13 13 13 13 13 13 12 12 12
13 13 14 14 14 15 15 15 15 15 15 15 15 14 14 14 14 14 13 13 13 13 13 13 13 13 13 13 13 13 13 13 13 13 13 13 13 13 13 13 13 13 12 12
12 12 13 13 13 13 14 14 14 14 15 15 15 14 14 14 14 14 13 13 13 13 13 13 13 13 13 13 13 13 13 13 13 13 13 13 13 13 13 13 13 12 12 12
Wind_Speed
4 5 4 4 4 5 5 5 5 4 3 5 6 5 6 7 7 7 7 8 8 7 6 7 7 7 8 9 9 9 9 10 9 9 9 9 9 9 9 9 9 8 7 7
2 4 4 3 3 4 3 3 3 2 3 5 4 3 5 6 7 7 7 7 7 7 6 6 6 6 7 8 8 8 9 9 9 9 10 9 9 8 9 9 8 8 8 8
3 4 2 2 5 4 3 3 5 4 4 3 1 2 3 4 5 6 7 7 8 6 5 4 4 4 6 6 7 8 8 9 9 9 9 9 9 9 9 8 8 9 8 8
3 3 4 6 4 6 5 3 5 4 4 4 4 2 2 2 3 5 6 7 7 6 5 3 3 4 5 6 7 7 7 8 8 8 8 8 9 8 8 6 7 7 8 8
4 3 3 3 4 6 5 3 5 4 2 3 3 2 4 4 2 3 4 4 4 4 3 3 3 3 4 5 6 6 7 7 7 7 8 8 8 7 6 6 7 6 6 8
3 3 5 6 6 6 5 2 4 6 5 4 5 3 4 5 3 4 4 3 4 4 3 3 2 2 4 4 5 5 5 5 5 6 7 8 7 7 6 6 6 6 8 8
3 3 6 4 6 8 4 7 6 7 7 6 5 5 5 4 3 4 3 4 4 4 3 1 0 2 3 2 2 2 4 6 6 6 7 7 7 7 7 7 7 8 8 8
4 3 7 7 9 8 8 5 8 8 7 6 4 3 0 2 3 5 5 5 5 4 4 2 1 1 1 1 1 2 5 6 7 7 7 7 8 8 7 7 8 7 7 7
7 7 5 9 8 7 7 8 8 8 6 6 4 2 1 2 3 5 5 5 4 3 4 4 2 0 0 2 1 4 6 6 6 7 7 7 7 7 7 7 6 6 6 7
2 5 4 6 5 7 8 9 8 8 7 6 5 3 2 1 2 4 5 5 4 4 4 4 3 1 1 1 3 6 6 5 5 6 6 7 6 6 6 6 6 6 6 6
3 4 4 5 6 8 8 9 8 7 7 7 6 3 2 1 2 3 4 4 4 4 3 3 2 2 3 2 5 6 6 4 4 4 5 5 5 5 5 4 4 3 3 4
8 9 9 10 10 10 11 10 10 9 8 6 6 4 3 1 1 2 3 4 4 5 3 2 1 2 3 3 6 7 5 4 3 3 3 3 4 3 6 4 6 7 6 4
7 8 8 8 11 12 12 11 10 9 9 7 5 4 3 2 1 1 3 4 5 4 2 1 1 2 3 2 5 6 5 4 3 4 4 3 3 2 1 3 5 6 7 8
7 8 5 7 10 11 10 11 9 9 8 8 6 4 3 2 1 1 3 4 4 2 2 2 2 3 3 2 5 5 4 4 4 3 4 4 4 3 2 1 1 3 4 7
8 8 8 8 10 10 9 9 9 8 8 7 6 5 5 4 3 3 3 3 3 3 2 2 2 3 3 1 4 5 4 3 3 2 2 3 3 3 3 3 2 1 2 4
7 7 9 10 12 11 10 10 10 10 9 8 7 7 6 5 4 4 3 1 1 0 1 0 2 3 3 0 3 3 3 5 4 2 2 2 2 3 3 3 3 2 1 1
10 9 9 11 12 11 10 10 11 10 9 9 9 8 7 5 2 3 3 2 1 2 2 1 2 4 3 1 3 4 3 4 4 2 2 3 3 4 4 4 4 3 2 2
12 12 11 13 12 10 10 10 10 10 9 10 9 8 8 6 5 5 4 1 2 2 1 2 3 3 3 2 1 3 3 3 3 3 3 3 4 4 5 5 5 5 3 2
9 10 11 12 12 11 11 10 10 9 9 9 10 10 8 7 7 6 4 2 2 4 4 4 4 2 2 2 1 1 3 4 4 4 4 5 4 4 5 5 5 5 5 4
9 10 11 11 11 10 10 10 9 9 9 10 10 9 8 7 7 6 5 4 5 6 5 4 2 1 2 2 2 1 2 3 4 4 5 5 5 5 5 5 6 6 5 5
9 10 10 11 11 10 11 11 10 10 10 10 11 10 10 8 7 6 5 5 5 6 5 4 2 2 2 3 3 2 3 3 4 5 5 6 6 5 5 6 6 6 6 6
4 7 10 10 10 9 9 10 10 11 10 10 10 10 9 8 7 6 6 6 7 8 6 4 4 5 5 4 3 4 4 4 4 4 5 6 6 6 6 6 6 6 6 6
1 3 6 8 9 9 8 9 10 10 11 11 11 10 9 9 7 6 6 6 6 8 7 5 7 9 8 4 4 4 5 5 5 5 5 6 6 6 6 7 6 6 6 7
6 3 1 3 5 7 8 9 9 9 10 10 10 11 9 7 6 7 6 7 9 10 7 8 11 11 8 4 4 5 5 5 5 5 5 6 6 6 6 6 6 6 7 8
6 6 5 3 2 4 7 8 8 8 8 8 9 10 8 8 8 7 7 8 10 10 7 9 12 11 6 4 5 5 5 5 5 5 5 5 6 6 6 6 7 7 7 7
6 5 4 2 1 3 3 4 5 6 7 7 7 7 7 7 8 7 6 8 10 10 8 7 7 7 5 5 6 6 6 6 6 5 5 5 6 6 6 7 8 7 7 7
6 5 4 4 4 3 1 2 4 5 6 7 8 8 8 8 7 8 8 7 7 7 7 7 7 6 6 6 6 6 6 5 5 5 5 5 5 6 6 8 7 7 6 6
Wind_Direction
137 153 131 116 90 75 88 137 149 204 239 274 292 300 309 315 326 344 356 355 356 360 5 8 14 16 19 24 27 30 36 37 33 30 33 37 40 42 43 50 58 57 57 51
147 170 141 122 137 119 111 129 151 199 260 255 274 304 325 333 341 352 357 357 357 3 14 19 23 27 29 31 28 35 39 35 32 36 39 39 40 44 48 52 56 60 59 53
190 197 154 230 203 181 168 178 173 200 236 231 267 320 324 337 355 353 356 359 0 3 17 25 28 37 39 35 36 39 39 35 34 38 39 35 42 47 48 49 54 56 53 49
138 141 245 256 211 164 164 193 188 204 229 199 204 237 300 313 7 353 351 357 355 360 16 29 37 41 43 42 43 42 39 35 34 38 37 33 39 42 41 43 49 51 47 40
129 179 270 281 198 171 172 220 205 182 181 182 167 43 340 314 333 337 338 345 339 349 18 42 48 56 58 43 41 43 40 38 36 41 41 37 35 31 31 42 44 43 41 38
126 170 241 245 200 158 120 230 220 154 140 135 113 79 286 293 321 343 340 337 341 352 24 42 35 80 76 48 42 40 42 47 47 48 48 42 37 36 36 47 46 46 43 36
173 222 257 246 143 119 156 228 187 151 146 141 159 197 240 290 348 352 339 334 350 6 12 355 241 100 80 49 35 43 62 59 51 50 55 50 45 42 43 48 48 45 42 33
170 206 256 185 141 175 209 162 145 146 152 153 176 195 210 26 8 358 351 342 352 7 357 327 288 112 66 343 336 80 82 69 58 49 52 53 51 44 40 43 45 36 32 26
188 213 237 175 186 196 154 146 152 153 155 146 144 138 74 37 4 351 348 344 346 358 353 341 328 176 259 294 91 105 97 84 75 65 53 49 52 48 41 37 42 34 31 28
199 259 192 185 167 151 153 152 159 154 149 142 142 130 102 59 360 354 346 343 342 355 359 344 334 334 314 319 122 118 118 111 96 83 66 51 47 47 50 40 37 36 33 24
207 221 172 214 184 160 152 146 147 148 150 151 145 135 139 178 338 345 342 337 348 355 346 331 338 354 9 82 119 117 126 128 114 102 96 76 61 48 50 39 35 43 28 16
210 200 180 203 194 165 154 160 159 156 160 163 160 162 151 194 303 332 341 342 347 349 352 343 0 4 23 92 124 125 126 137 141 136 126 116 104 66 32 31 32 44 46 40
193 179 181 186 179 170 164 168 166 166 168 172 173 166 152 172 239 337 347 347 338 332 340 32 48 13 13 101 130 133 142 151 154 158 166 172 166 145 88 360 11 26 31 35
156 133 151 166 177 174 166 167 164 165 169 168 168 162 148 148 154 343 324 322 331 0 55 75 57 7 346 119 136 139 146 149 149 164 177 185 192 190 177 161 19 350 1 20
162 160 168 165 162 165 162 157 159 169 170 173 172 169 167 172 203 260 288 327 21 50 57 60 42 352 339 101 147 154 153 156 156 165 172 172 172 165 161 157 133 52 13 15
166 145 145 150 163 168 164 168 173 182 184 185 185 187 190 194 216 250 267 341 44 298 234 51 351 322 323 161 158 167 185 188 174 168 166 159 156 149 144 146 143 132 103 27
153 163 169 173 176 177 177 177 180 185 188 190 193 191 188 187 206 234 262 312 274 201 187 208 306 318 325 221 184 192 201 210 197 171 177 178 169 167 168 166 168 177 204 216
185 182 178 179 180 180 184 183 184 186 191 196 186 179 181 184 201 221 240 311 94 141 245 277 312 334 4 22 174 197 205 216 213 206 207 197 185 178 176 180 185 189 206 205
185 177 179 182 182 181 183 187 191 193 191 181 176 182 190 196 202 212 208 175 188 232 258 281 324 11 6 10 76 197 223 227 224 223 213 207 195 189 188 191 196 199 197 193
188 184 182 185 185 182 188 191 188 187 185 176 176 182 192 202 204 203 199 212 226 226 241 264 281 289 322 332 359 249 245 236 226 222 213 210 210 211 205 203 202 200 198 195
190 188 186 186 190 192 191 187 183 187 186 179 180 189 198 206 204 194 191 228 249 233 237 259 229 227 269 299 319 289 269 254 240 224 216 216 218 219 215 210 206 203 199 197
191 191 193 190 189 195 197 189 186 186 184 187 191 190 191 201 204 206 215 219 234 225 219 232 226 237 255 286 292 284 273 263 250 234 222 217 215 218 218 214 210 208 201 195
31 199 199 196 193 195 193 189 188 185 186 190 191 191 195 200 194 195 231 237 229 223 211 225 230 243 260 271 274 278 275 268 256 239 226 219 216 215 214 214 209 204 198 197
31 21 285 218 190 182 191 200 196 194 195 197 198 196 192 197 216 221 218 227 213 214 214 229 239 250 261 258 266 273 273 271 266 254 237 227 221 218 216 212 207 204 200 198
25 24 29 47 170 212 214 208 201 202 200 206 213 209 203 197 204 216 212 219 224 222 224 236 244 254 254 250 258 265 266 263 267 263 246 233 225 220 216 211 207 203 200 201
9 3 359 350 284 255 233 207 206 210 205 213 223 221 215 212 213 212 211 216 222 218 218 229 238 248 244 247 254 257 257 268 280 271 255 242 232 224 219 216 213 208 205 205
347 351 352 351 347 340 307 215 220 227 217 214 223 225 218 214 211 212 214 216 217 218 220 225 228 232 237 243 249 252 253 256 262 263 259 249 239 230 225 222 217 213 206 202
Height
1580 1578 1579 1581 1582 1582 1585 1589 1594 1591 1588 1584 1580 1577 1574 1570 1567 1563 1559 1555 1551 1548 1545 1541 1537 1534 1531 1528 1525 1523 1521 1519 1518 1517 1516 1514 1513 1513 1512 1512 1512 1512 1512 1512
1581 1579 1579 1582 1581 1582 1583 1584 1586 1586 1585 1579 1578 1576 1574 1571 1568 1564 1561 1558 1554 1551 1548 1545 1542 1539 1536 1533 1530 1528 1525 1523 1522 1521 1519 1518 1517 1516 1515 1514 1513 1513 1513 1513
1588 1581 1582 1588 1581 1580 1581 1581 1582 1585 1582 1578 1577 1576 1574 1572 1569 1566 1563 1560 1557 1554 1551 1548 1546 1543 1540 1537 1535 1532 1529 1528 1526 1524 1522 1521 1520 1518 1517 1516 1515 1514 1514 1513
1587 1588 1593 1583 1573 1574 1577 1577 1577 1577 1576 1576 1576 1575 1574 1572 1570 1568 1565 1562 1560 1557 1554 1551 1549 1546 1543 1541 1538 1536 1533 1531 1530 1528 1526 1524 1523 1521 1520 1519 1517 1516 1515 1514
1589 1590 1585 1579 1573 1573 1577 1578 1574 1575 1574 1575 1575 1575 1574 1573 1571 1569 1567 1564 1562 1559 1556 1554 1551 1549 1547 1544 1542 1539 1537 1535 1533 1531 1529 1527 1525 1524 1523 1521 1520 1518 1517 1516
1584 1585 1586 1574 1567 1569 1575 1579 1573 1573 1573 1574 1575 1578 1576 1573 1571 1569 1567 1565 1563 1561 1558 1556 1554 1551 1549 1547 1545 1542 1540 1538 1536 1534 1532 1530 1528 1527 1525 1524 1522 1521 1519 1518
1581 1581 1575 1565 1565 1570 1582 1577 1570 1571 1572 1573 1574 1575 1574 1573 1571 1570 1568 1566 1564 1562 1559 1557 1555 1553 1551 1549 1547 1546 1544 1541 1539 1537 1534 1533 1531 1530 1528 1526 1525 1523 1521 1519
1580 1581 1576 1561 1564 1569 1568 1564 1567 1570 1572 1573 1573 1573 1573 1572 1571 1570 1568 1566 1564 1562 1561 1559 1557 1555 1553 1551 1550 1548 1546 1544 1542 1539 1537 1536 1534 1533 1531 1529 1527 1525 1524 1521
1567 1567 1556 1556 1558 1560 1561 1564 1567 1569 1571 1572 1573 1573 1573 1572 1571 1570 1568 1567 1565 1563 1562 1560 1558 1557 1555 1553 1552 1550 1548 1546 1545 1543 1541 1539 1537 1536 1534 1532 1530 1528 1526 1524
1558 1555 1553 1555 1557 1558 1561 1563 1566 1568 1570 1572 1572 1573 1573 1572 1571 1570 1569 1567 1566 1564 1563 1561 1559 1558 1556 1554 1553 1552 1550 1549 1547 1546 1544 1543 1541 1539 1538 1536 1533 1531 1529 1526
1555 1553 1554 1554 1555 1557 1560 1563 1565 1568 1569 1571 1572 1572 1572 1572 1571 1570 1569 1568 1567 1565 1563 1562 1560 1559 1557 1556 1555 1553 1552 1551 1550 1548 1547 1546 1544 1543 1541 1539 1537 1534 1532 1530
1550 1545 1547 1549 1552 1555 1558 1561 1563 1566 1568 1570 1571 1572 1572 1572 1571 1570 1569 1568 1567 1566 1564 1563 1561 1560 1558 1557 1556 1555 1553 1552 1551 1550 1549 1548 1547 1545 1544 1542 1539 1537 1535 1533
1538 1540 1542 1545 1549 1553 1556 1559 1562 1564 1566 1568 1570 1571 1571 1571 1571 1570 1569 1568 1567 1566 1565 1563 1562 1561 1559 1558 1557 1556 1554 1553 1553 1552 1551 1550 1549 1548 1546 1545 1542 1540 1538 1536
1536 1538 1541 1543 1546 1550 1554 1557 1561 1563 1565 1567 1568 1569 1570 1570 1570 1570 1569 1568 1567 1566 1565 1564 1563 1561 1560 1559 1558 1557 1555 1554 1554 1553 1552 1552 1551 1549 1548 1546 1544 1542 1540 1538
1535 1536 1538 1540 1544 1548 1552 1555 1558 1561 1563 1565 1566 1567 1568 1568 1569 1568 1568 1567 1567 1566 1565 1564 1563 1561 1560 1559 1558 1557 1556 1555 1554 1554 1553 1553 1552 1551 1549 1548 1546 1544 1542 1540
1533 1535 1536 1538 1541 1545 1549 1552 1555 1558 1560 1562 1564 1565 1566 1567 1567 1567 1567 1566 1566 1565 1564 1563 1562 1561 1560 1559 1559 1558 1556 1555 1555 1554 1554 1553 1552 1551 1550 1549 1547 1545 1543 1541
1530 1531 1533 1536 1539 1542 1545 1548 1552 1555 1557 1559 1561 1563 1564 1564 1565 1565 1565 1564 1563 1563 1562 1562 1561 1560 1559 1558 1558 1557 1557 1556 1555 1554 1554 1553 1552 1551 1551 1549 1548 1546 1545 1543
1527 1528 1530 1533 1536 1539 1542 1546 1549 1552 1554 1556 1559 1560 1561 1561 1562 1562 1562 1562 1561 1561 1560 1560 1559 1558 1557 1557 1556 1556 1556 1555 1555 1554 1553 1552 1552 1551 1550 1549 1548 1547 1545 1544
1524 1526 1529 1531 1534 1537 1540 1542 1545 1548 1551 1553 1555 1556 1557 1558 1559 1559 1559 1559 1558 1558 1558 1557 1556 1556 1555 1555 1554 1554 1554 1554 1553 1553 1552 1552 1551 1550 1550 1549 1548 1547 1546 1544
1521 1524 1526 1528 1531 1534 1536 1539 1542 1545 1547 1549 1551 1552 1554 1554 1555 1555 1555 1555 1555 1555 1555 1554 1553 1553 1553 1552 1552 1551 1551 1551 1551 1551 1551 1550 1550 1549 1549 1548 1547 1546 1545 1544
1518 1520 1523 1525 1528 1530 1533 1536 1538 1540 1543 1545 1546 1548 1549 1550 1551 1551 1551 1551 1552 1552 1551 1551 1550 1550 1550 1549 1549 1548 1548 1548 1548 1548 1548 1548 1548 1547 1547 1546 1546 1545 1544 1543
1515 1517 1520 1522 1524 1527 1529 1532 1534 1536 1539 1540 1542 1544 1545 1546 1546 1547 1547 1547 1548 1548 1547 1547 1547 1546 1546 1545 1545 1545 1544 1544 1545 1545 1545 1545 1545 1545 1544 1544 1543 1543 1542 1542
1513 1514 1516 1519 1521 1523 1525 1528 1530 1532 1534 1536 1537 1539 1540 1541 1541 1542 1542 1543 1544 1544 1544 1543 1543 1543 1542 1542 1541 1541 1540 1540 1541 1541 1541 1542 1542 1542 1541 1541 1541 1540 1540 1539
1511 1512 1513 1515 1517 1519 1521 1523 1525 1527 1529 1531 1532 1534 1535 1536 1536 1537 1537 1538 1539 1539 1539 1540 1539 1539 1538 1538 1537 1537 1537 1536 1537 1537 1537 1537 1538 1538 1538 1538 1538 1537 1537 1537
1510 1510 1511 1512 1514 1515 1517 1519 1521 1523 1524 1526 1527 1529 1530 1531 1531 1532 1533 1533 1534 1534 1535 1535 1535 1535 1534 1534 1533 1533 1533 1533 1533 1533 1533 1533 1533 1533 1534 1534 1534 1534 1534 1533
1509 1509 1510 1510 1511 1512 1513 1515 1516 1517 1519 1520 1521 1523 1524 1526 1526 1527 1527 1528 1528 1529 1529 1530 1530 1530 1530 1529 1529 1529 1528 1528 1528 1528 1528 1528 1528 1528 1529 1529 1529 1529 1530 1529
1508 1509 1509 1509 1509 1510 1510 1511 1511 1512 1514 1515 1516 1517 1519 1520 1521 1521 1522 1522 1522 1523 1523 1524 1525 1525 1524 1524 1524 1524 1524 1523 1523 1523 1523 1523 1523 1523 1523 1524 1524 1524 1525 1525